Nowra Airport

Jump to: basic info | weather | frequencies | runways | comments

Related pages: nearby airports | nearby navaids | notams | map

Basic information (top)

Codes: NOA YSNW
Location: lon -34.948898, lat 150.537003, elev 400 ft / 122 m msl
Status: medium_airport

Weather (top)

Current conditions (rec'd 2014/11/28 23:00Z):

YSNW 282300Z AUTO 31003KT 9999 // SCT110 23/13 Q1018

Airport forecast for Sydney Kingsford Smith International Airport 68nm (126km) NNE (rec'd 2014/11/28 12:33Z):

TAF YSSY 281106Z 2812/2918 04008KT 9999 FEW035 
     FM281500 32008KT 9999 SCT030 
     FM282300 07015KT 9999 FEW035 
     FM290200 04020KT CAVOK 
     FM291000 01010KT 9999 FEW010

Frequencies (top)

Verify before use: may be inaccurate or out of date.

APP: 123.5 MHz (APP)
ATIS: 28.04 MHz (ATIS)
CLD: 128.35 MHz (CLNC DEL)
CTAF: 118.85 MHz (CTAF)
FSS: 121.2 MHz (MELBOURNE CNTR)
GND: 135.85 MHz (GND)
TWR: 118.85 MHz (TWR)

Runways (top)

03/21: 6,713 x 148 ft (2,046 x 45 m) — paved — lighted

08/26: 6,870 x 148 ft (2,094 x 45 m) — paved — lighted — threshold 26 displaced 298 ft (91 m)

Latest comments (top)

No comments yet for Nowra Airport

More... (top)

See also NOTAMs and nearby airports and navaids, or visit the Nowra Airport page at the main OurAirports website..